sat.trackr.live / text

‹ back to catalog

CUTE-1.7+APD II (CO-65)

NORAD 32785 · 2008-021C

PAYLOAD ACTIVE UNKNOWN

§ Identity

Operator
Country
JPN
Launch date
2008-04-28
Launch site
SRILR
Launch vehicle
Mass (kg)
RCS (m²)
0.10

Purposes: comms, tech_demo

External: N2YO · Heavens-Above · Gunter

§ Orbital elements

Epoch: 2026-05-25T04:16:01.449984Z

Period
95.42 min
Inclination
97.8262°
Eccentricity
0.0010640
Mean motion
15.09192180 rev/d
Perigee alt
531.3 km
Apogee alt
546.0 km
Semi-major
6,916.8 km
B*
2.8765e-4
RAAN
126.1242°
Arg perigee
104.7166°
Mean anomaly
255.5242°
Rev number
98,172

§ Raw data

CUTE-1.7+APD II (CO-65)1 32785U 08021C   26145.17779456  .00004510  00000+0  28765-3 0  99902 32785  97.8262 126.1242 0010640 104.7166 255.5242 15.09192180981723

JSON: /api/v1/satellites/32785 · /tle

For live sub-satellite position, see the globe view (requires WebGL).

§ Visibility from observer

Set your observer location to see the next 7 days of passes ≥ 10°. The values pass through the URL so the page stays shareable.

No JS? Fill the form by hand. The geolocation button needs JavaScript.

§ Radio — SatNOGS DB

ModeDescriptionDownlinkUplink
GMSK Mode L/U Digipeater 437.475 MHz 1.268 GHz
CW Mode U TLM 1 437.275 MHz
AFSK Mode U TLM 2 437.475 MHz
CW PE0SAT - CW Beacon 437.275 MHz

4 transmitters · refreshed weekly from db.satnogs.org